[[{"header":{"parameterUnit":"m.s-1","parameterCategory":1,"la1":30.2991,"la2":30.254,"lo1":-89.0895,"lo2":-89.0444,"dy":0.0017,"dx":0.0017,"nx":28,"ny":28,"refTime":"2026-01-03T03:00:00:Z","depth":0,"parameterNumber":2,"parameterNumberName":"U-component_of_WINDS"},"data":[0,0,0,0,0,0,0,0,0,0,0,0,0,0,0,0,0,0,0,0,0,0,0,0,0,0,0,0,0,0,0,0,0,0,0,0,0,0,0,0,0,0,0,0,0,0,0,0,0,0,0,0,0,0,0,0,0,0,2.4233,2.4234,0,2.4291,2.4292,2.4292,2.4255,2.4253,2.4251,2.425,2.4311,2.4314,2.4318,0,0,0,0,0,0,0,0,0,0,0,0,0,2.4094,2.4096,2.4233,2.4234,2.4235,2.4291,2.4292,2.4292,2.4255,2.4253,2.4251,2.4249,2.431,2.4314,2.4318,0,0,0,0,0,0,0,0,0,0,0,0,0,2.4153,2.4097,2.4233,2.4223,2.4222,2.4291,2.4292,2.4293,2.4255,2.4253,2.425,2.4248,2.4309,2.4314,2.4319,2.4401,0,0,2.4334,2.4336,0,0,0,0,0,0,0,0,2.415,2.4158,2.4224,2.4224,2.4223,2.4263,2.4265,2.4329,2.4256,2.4243,2.425,2.4247,2.4298,2.4303,2.432,2.4404,2.4407,2.4334,2.4337,2.4339,2.434,0,0,0,0,0,0,0,2.4146,2.4156,2.4256,2.4225,2.4224,2.4216,2.4222,2.4277,2.4284,2.4244,2.4241,2.4249,2.4297,2.4315,2.4321,2.4407,2.4334,2.4338,2.4341,2.4343,2.4564,2.4566,0,0,0,0,0,0,2.4142,2.4152,2.4254,2.4258,2.4179,2.4221,2.4227,2.4253,2.4284,2.4286,2.4251,2.4247,2.4308,2.4315,2.4323,2.4422,2.4339,2.4344,2.4346,2.4561,2.4564,2.4567,0,0,0,0,0,0,2.4139,2.4152,2.4252,2.4204,2.4217,2.4226,2.4255,2.4255,2.4273,2.4289,2.429,2.4268,2.4306,2.4316,2.4382,2.4424,2.4346,2.435,2.4557,2.4562,2.4566,2.4621,0,0,0,0,0,0,2.4135,2.4151,2.4181,2.4205,2.4219,2.4309,2.4258,2.4258,2.4282,2.4277,2.4305,2.4307,2.4305,2.4375,2.4387,2.4429,2.4354,2.4554,2.4559,2.4564,2.4616,2.4627,2.4637,0,0,0,0,0,2.4131,2.4195,2.4183,2.4196,2.4258,2.4312,2.432,2.4315,2.4285,2.4317,2.4327,2.4306,2.4417,2.4382,2.4395,2.444,2.4551,2.4558,2.4564,2.4611,2.4625,2.4636,0,0,0,0,0,0,2.4176,2.4198,2.4185,2.4259,2.4284,2.4305,2.4344,2.433,2.4364,2.4358,2.4352,2.4358,2.4427,2.444,2.44,2.4522,2.448,2.4489,2.4511,2.4524,2.4534,2.453,2.4358,0,0,0,0,0,2.4194,2.4236,2.4253,2.4316,2.4329,2.4335,2.4358,2.4353,2.4378,2.4389,2.4404,2.443,2.4471,2.4498,2.4537,2.4617,2.4624,2.4655,2.4665,2.4674,2.4682,2.4727,2.4741,2.4589,2.4589,2.4589,0,0,2.4233,2.425,2.4277,2.4326,2.4344,2.4388,2.4344,2.4392,2.4425,2.4396,2.4459,2.4472,2.4501,2.4575,2.4608,2.4587,2.4726,2.4682,2.4689,2.4693,2.4735,2.475,2.4762,2.4593,2.4593,2.4592,0,0,2.4326,2.4343,2.4398,2.4418,2.4446,2.445,2.4463,2.4488,2.4494,2.4557,2.4537,2.4577,2.4647,2.4669,2.469,2.4793,2.4776,2.4805,2.486,2.4904,2.4916,2.4927,2.4964,2.4978,2.4814,2.4814,2.4814,0,2.4371,2.4435,2.4429,2.4479,2.4501,2.4477,2.4534,2.4554,2.4594,2.4611,2.4587,2.4675,2.4693,2.4773,2.4798,2.4815,2.4831,2.4802,2.4915,2.4925,2.4935,2.4971,2.4985,2.4817,2.4817,2.4817,2.4816,0,2.449,2.4535,2.4576,2.4615,2.4643,2.4696,2.4698,2.4727,2.4719,2.4726,2.4791,2.4812,2.4855,2.4873,2.4866,2.4952,2.4939,2.4915,2.4873,2.4953,2.4987,2.5,2.4822,2.4821,2.482,2.4819,0,0,2.4612,2.4647,2.4663,2.4681,2.4711,2.4746,2.4799,2.484,2.4866,2.4895,2.4939,2.5,2.4978,2.5002,2.4997,2.5036,2.5117,2.5007,2.5008,2.5028,2.5215,2.5232,2.5248,2.5106,2.5109,2.5111,2.5212,0,2.4707,2.4798,2.4794,2.488,2.4922,2.4901,2.4947,2.4972,2.4979,2.5017,2.5026,2.5069,2.5037,2.5051,2.5088,2.51,2.5155,2.5092,2.5149,2.5151,2.5142,2.5266,2.5285,2.5379,2.5225,2.5228,2.5229,0,2.483,2.4863,2.4953,2.4978,2.4996,2.5037,2.5075,2.5112,2.5139,2.5143,2.5169,2.5159,2.5214,2.517,2.5246,2.5203,2.5226,2.5236,2.5239,2.5244,2.5195,2.5275,2.5409,2.5423,2.525,2.5248,2.5246,0,2.4911,2.4978,2.5041,2.5057,2.5088,2.5118,2.5132,2.5157,2.5183,2.5217,2.5233,2.5273,2.5295,2.5327,2.5328,2.5296,2.5406,2.5362,2.5411,2.5411,2.5435,2.5433,2.5575,2.5449,2.5449,2.5449,2.5448,0,2.5018,2.5074,2.5078,2.5116,2.5179,2.5175,2.5237,2.5249,2.5272,2.5313,2.5297,2.5336,2.5336,2.5376,2.5378,2.5441,2.5451,2.5456,2.5455,2.5457,2.5457,2.5472,2.5466,2.5452,2.5452,2.5451,2.545,0,2.5119,2.5123,2.519,2.5215,2.5222,2.5267,2.5289,2.5326,2.5333,2.5385,2.5397,2.5408,2.5455,2.546,2.5514,2.5515,2.5592,2.5585,2.5582,2.5581,2.563,2.5626,2.5787,2.5809,2.5669,2.567,2.5671,0,2.5186,2.5229,2.5258,2.5285,2.5301,2.5343,2.537,2.5368,2.5396,2.5432,2.5465,2.551,2.5546,2.5622,2.5636,2.5678,2.5672,2.5725,2.5678,2.5679,2.5673,2.5671,2.5675,2.5735,2.5736,2.5737,2.5738,0,2.5307,2.5307,2.5345,2.5385,2.5416,2.5447,2.5476,2.5499,2.5501,2.5534,2.5581,2.5609,2.5665,2.5711,2.5752,2.5768,2.5754,2.5753,2.5767,2.5769,2.5766,2.5769,2.5608,2.575,2.5748,2.5748,2.5747,2.5747,2.5393,2.5431,2.5457,2.5501,2.5523,2.555,2.5587,2.5599,2.5638,2.5683,2.568,2.5733,2.5761,2.5815,2.5835,2.5877,2.5859,2.5878,2.5883,2.5888,2.5894,2.576,2.5884,2.5884,2.5884,2.5883,2.5883,0,2.5513,2.5529,2.5569,2.5611,2.5645,2.5629,2.5661,2.5691,2.5737,2.5765,2.5801,2.5856,2.5901,2.5918,2.5962,2.5992,2.5987,2.6004,2.6002,2.6006,2.5907,2.5891,2.6007,2.6007,2.6007,2.6007,2.6007,2.6007,2.5579,2.5642,2.5646,2.572,2.5736,2.5788,2.5807,2.5834,2.5856,2.5918,2.5955,2.5966,2.599,2.6035,2.6076,2.608,2.6097,2.6117,2.6118,2.6025,2.6013,2.6001,2.5986,2.612,2.6121,2.6214,2.6215,2.6215]},{"header":{"parameterUnit":"m.s-1","parameterCategory":1,"la1":30.2991,"la2":30.254,"lo1":-89.0895,"lo2":-89.0444,"dy":0.0017,"dx":0.0017,"nx":28,"ny":28,"refTime":"2026-01-03T03:00:00:Z","depth":0,"parameterNumber":3,"parameterNumberName":"V-component_of_WINDS"},"data":[0,0,0,0,0,0,0,0,0,0,0,0,0,0,0,0,0,0,0,0,0,0,0,0,0,0,0,0,0,0,0,0,0,0,0,0,0,0,0,0,0,0,0,0,0,0,0,0,0,0,0,0,0,0,0,0,0,0,4.1712,4.1714,0,4.1875,4.1877,4.1879,4.1879,4.1877,4.1875,4.1873,4.2042,4.2049,4.2055,0,0,0,0,0,0,0,0,0,0,0,0,0,4.1403,4.1409,4.1712,4.1714,4.1716,4.1875,4.1877,4.1879,4.188,4.1877,4.1875,4.1872,4.204,4.2048,4.2055,0,0,0,0,0,0,0,0,0,0,0,0,0,4.1549,4.1411,4.1711,4.1735,4.1739,4.1874,4.1877,4.188,4.188,4.1877,4.1874,4.1871,4.2038,4.2047,4.2057,4.218,0,0,4.2086,4.209,0,0,0,0,0,0,0,0,4.1541,4.156,4.173,4.1734,4.1738,4.1854,4.183,4.198,4.1881,4.1827,4.1873,4.187,4.1982,4.1996,4.2034,4.2187,4.2195,4.2087,4.2093,4.2097,4.21,0,0,0,0,0,0,0,4.1531,4.1553,4.1776,4.1732,4.1737,4.1739,4.1756,4.1859,4.192,4.1831,4.1832,4.1851,4.1984,4.2024,4.2038,4.2197,4.2087,4.2095,4.2101,4.2105,4.2463,4.2466,0,0,0,0,0,0,4.1515,4.1545,4.1771,4.1781,4.163,4.1747,4.1766,4.182,4.1919,4.1931,4.1853,4.185,4.2009,4.2026,4.2044,4.2196,4.2097,4.2106,4.2112,4.2459,4.2464,4.2468,0,0,0,0,0,0,4.1509,4.1536,4.1765,4.1663,4.1693,4.1755,4.1816,4.1825,4.1865,4.1936,4.1947,4.1883,4.2008,4.203,4.2146,4.2202,4.211,4.2119,4.2455,4.2461,4.2466,4.2501,0,0,0,0,0,0,4.15,4.1533,4.158,4.1664,4.1698,4.1864,4.1819,4.183,4.1882,4.1879,4.1967,4.1978,4.2007,4.2132,4.2156,4.2214,4.2127,4.245,4.2457,4.2464,4.2495,4.2507,4.2518,0,0,0,0,0,4.1489,4.1583,4.1582,4.1609,4.1757,4.1867,4.1886,4.1916,4.1886,4.1934,4.198,4.1976,4.2192,4.2144,4.2171,4.2233,4.2447,4.2455,4.2463,4.249,4.2505,4.2517,0,0,0,0,0,0,4.1504,4.1594,4.1594,4.1719,4.1785,4.1867,4.1928,4.193,4.2007,4.2002,4.2036,4.2056,4.2173,4.2214,4.2159,4.2358,4.2316,4.233,4.2327,4.2342,4.2352,4.2341,4.2135,0,0,0,0,0,4.1521,4.1602,4.1677,4.1779,4.1813,4.1865,4.1913,4.1931,4.2001,4.203,4.2084,4.2153,4.2237,4.2291,4.2372,4.2501,4.2521,4.2557,4.2568,4.2577,4.2589,4.2663,4.268,4.2495,4.2495,4.2495,0,0,4.1558,4.1618,4.1667,4.1784,4.1837,4.1921,4.1888,4.1978,4.2041,4.2043,4.2157,4.2199,4.2279,4.2403,4.246,4.2441,4.2645,4.2587,4.2594,4.2602,4.2673,4.2691,4.2706,4.25,4.2499,4.2499,0,0,4.167,4.1722,4.1814,4.1869,4.195,4.1985,4.2007,4.2089,4.2117,4.2231,4.2236,4.2311,4.2454,4.2511,4.2559,4.2694,4.2694,4.2719,4.2778,4.285,4.2864,4.2877,4.2928,4.2945,4.2731,4.2731,4.2731,0,4.1706,4.1832,4.1861,4.1952,4.2005,4.201,4.2105,4.2157,4.2261,4.2297,4.2274,4.2455,4.2508,4.2647,4.268,4.2718,4.2746,4.271,4.2859,4.2873,4.2886,4.2934,4.2953,4.2734,4.2734,4.2733,4.2733,0,4.1874,4.1961,4.2026,4.2127,4.2186,4.2278,4.2323,4.238,4.2392,4.243,4.2547,4.2612,4.2707,4.2741,4.2754,4.2883,4.2868,4.2852,4.281,4.2906,4.2952,4.2971,4.2738,4.2737,4.2736,4.2735,0,0,4.1999,4.2116,4.2139,4.2186,4.2277,4.2346,4.2439,4.2532,4.2581,4.2652,4.2733,4.2854,4.284,4.2895,4.2914,4.2977,4.3083,4.2953,4.2956,4.2977,4.3231,4.3244,4.3265,4.3082,4.3086,4.3089,4.3225,0,4.2122,4.2287,4.2317,4.2462,4.2544,4.2552,4.2633,4.2699,4.2736,4.2813,4.2854,4.2941,4.2914,4.2947,4.301,4.3057,4.3135,4.3047,4.316,4.3163,4.3142,4.3289,4.3303,4.3429,4.3243,4.3246,4.3248,0,4.2287,4.2364,4.2517,4.2599,4.2634,4.2707,4.2796,4.2868,4.2943,4.2966,4.3028,4.3041,4.3139,4.3092,4.323,4.317,4.3218,4.3248,4.3253,4.3267,4.3213,4.3309,4.3469,4.3489,4.3277,4.3275,4.3273,0,4.2366,4.2507,4.2617,4.2657,4.2755,4.2806,4.2849,4.2921,4.2976,4.3054,4.309,4.3178,4.3227,4.3295,4.3332,4.3294,4.3469,4.3424,4.3492,4.3492,4.353,4.3527,4.3703,4.3557,4.3557,4.3557,4.3556,0,4.2501,4.2595,4.2655,4.2723,4.2829,4.2863,4.2967,4.301,4.3074,4.3152,4.3163,4.3236,4.328,4.336,4.3389,4.35,4.3521,4.3544,4.3552,4.3545,4.3542,4.3578,4.3571,4.3562,4.356,4.3559,4.3559,0,4.2607,4.2651,4.2772,4.2855,4.2878,4.2953,4.3025,4.3092,4.313,4.3228,4.3253,4.3313,4.3407,4.3451,4.3567,4.3587,4.3715,4.3715,4.369,4.3693,4.376,4.3754,4.3966,4.3996,4.3828,4.383,4.3831,0,4.2691,4.2764,4.2855,4.2908,4.2953,4.3038,4.3094,4.3131,4.3189,4.3281,4.3338,4.3433,4.3511,4.3662,4.3716,4.3806,4.381,4.3878,4.3823,4.3815,4.3814,4.381,4.3819,4.3888,4.389,4.3891,4.3892,0,4.2837,4.2855,4.2936,4.3025,4.3091,4.3163,4.3233,4.3276,4.3324,4.3389,4.3486,4.3547,4.3666,4.3762,4.3855,4.3901,4.3906,4.3909,4.393,4.3925,4.3908,4.3921,4.3719,4.3904,4.3903,4.3902,4.3902,4.3901,4.2937,4.3003,4.3078,4.3168,4.3224,4.329,4.3358,4.3405,4.3486,4.3587,4.3603,4.3707,4.3783,4.3909,4.3959,4.4041,4.4025,4.4055,4.4063,4.4071,4.4076,4.3893,4.4058,4.4058,4.4058,4.4057,4.4057,0,4.3085,4.3134,4.3216,4.3315,4.3386,4.3383,4.3461,4.3522,4.3613,4.3682,4.3759,4.3872,4.3965,4.4027,4.4121,4.4175,4.418,4.4199,4.4197,4.4208,4.4083,4.4057,4.4194,4.4194,4.4194,4.4194,4.4194,4.4194,4.3171,4.3283,4.3311,4.3452,4.35,4.3602,4.3648,4.3709,4.3765,4.3891,4.3968,4.4007,4.4075,4.4174,4.426,4.4276,4.4311,4.4331,4.4347,4.423,4.4216,4.4202,4.4178,4.4338,4.4338,4.4465,4.4466,4.4467]}]]